H1 CPF 1 NER 2022 2 27 9 5581 glonass142 H2 2001801 9142 45358 2022 2 27 0 0 0 2022 3 2 23 45 0 900 1 1 0 0 0 H9 10 0 59637 0.00000 0 1852529.213 12940520.692 -21882932.750 10 0 59637 900.00000 0 -552207.951 11592770.326 -22694549.647 10 0 59637 1800.00000 0 -3115828.846 10395533.402 -23064507.363 10 0 59637 2700.00000 0 -5777320.456 9383870.153 -22985619.554 10 0 59637 3600.00000 0 -8470316.367 8581655.081 -22459447.077 10 0 59637 4500.00000 0 -11125638.239 8000676.689 -21496265.598 10 0 59637 5400.00000 0 -13673963.257 7640263.881 -20114862.369 10 0 59637 6300.00000 0 -16048506.599 7487453.890 -18342166.255 10 0 59637 7200.00000 0 -18187607.133 7517693.628 -16212718.428 10 0 59637 8100.00000 0 -20037108.730 7696043.758 -13767994.230 10 0 59637 9000.00000 0 -21552438.186 7978833.496 -11055589.669 10 0 59637 9900.00000 0 -22700293.350 8315695.100 -8128288.836 10 0 59637 10800.00000 0 -23459871.708 8651890.949 -5043030.811 10 0 59637 11700.00000 0 -23823588.967 8930833.804 -1859796.704 10 0 59637 12600.00000 0 -23797258.696 9096692.797 1359560.868 10 0 59637 13500.00000 0 -23399726.906 9096974.234 4552522.569 10 0 59637 14400.00000 0 -22661978.322 8884967.567 7657117.522 10 0 59637 15300.00000 0 -21625753.230 8421952.866 10613124.915 10 0 59637 16200.00000 0 -20341734.219 7679076.393 13363238.632 10 0 59637 17100.00000 0 -18867379.832 6638815.081 15854172.586 10 0 59637 18000.00000 0 -17264496.592 5295968.169 18037685.699 10 0 59637 18900.00000 0 -15596651.338 3658134.095 19871507.502 10 0 59637 19800.00000 0 -13926531.971 1745652.248 21320147.371 10 0 59637 20700.00000 0 -12313366.422 -408988.597 22355572.735 10 0 59637 21600.00000 0 -10810506.783 -2762251.383 22957744.230 10 0 59637 22500.00000 0 -9463278.384 -5261116.737 23114998.345 10 0 59637 23400.00000 0 -8307182.444 -7845049.993 22824270.786 10 0 59637 24300.00000 0 -7366526.175 -10448289.120 22091156.646 10 0 59637 25200.00000 0 -6653536.544 -13002360.183 20929806.117 10 0 59637 26100.00000 0 -6167994.007 -15438717.419 19362657.411 10 0 59637 27000.00000 0 -5897401.056 -17691399.720 17420011.307 10 0 59637 27900.00000 0 -5817678.325 -19699594.332 15139454.529 10 0 59637 28800.00000 0 -5894359.138 -21410001.860 12565142.072 10 0 59637 29700.00000 0 -6084232.502 -22778904.595 9746951.206 10 0 59637 30600.00000 0 -6337365.653 -23773851.995 6739522.481 10 0 59637 31500.00000 0 -6599421.127 -24374892.630 3601205.626 10 0 59637 32400.00000 0 -6814170.550 -24575300.680 392930.213 10 0 59637 33300.00000 0 -6926098.673 -24381765.926 -2822977.183 10 0 59637 34200.00000 0 -6882986.996 -23814038.694 -5984006.119 10 0 59637 35100.00000 0 -6638366.754 -22904044.147 -9028681.775 10 0 59637 36000.00000 0 -6153736.275 -21694502.792 -11897766.461 10 0 59637 36900.00000 0 -5400447.469 -20237115.033 -14535418.943 10 0 59637 37800.00000 0 -4361180.085 -18590386.160 -16890288.321 10 0 59637 38700.00000 0 -3030939.693 -16817183.394 -18916520.461 10 0 59637 39600.00000 0 -1417535.620 -14982128.019 -20574656.766 10 0 59637 40500.00000 0 458482.981 -13148932.527 -21832407.374 10 0 59637 41400.00000 0 2564431.828 -11377794.853 -22665283.509 10 0 59637 42300.00000 0 4856612.853 -9722959.346 -23057076.480 10 0 59637 43200.00000 0 7281906.368 -8230546.772 -23000174.053 10 0 59637 44100.00000 0 9779768.288 -6936744.146 -22495708.075 10 0 59637 45000.00000 0 12284549.473 -5866429.913 -21553530.566 10 0 59637 45900.00000 0 14728040.744 -5032291.386 -20192018.893 10 0 59637 46800.00000 0 17042137.520 -4434470.505 -18437713.912 10 0 59637 47700.00000 0 19161512.872 -4060751.650 -16324798.323 10 0 59637 48600.00000 0 21026187.479 -3887282.201 -13894425.583 10 0 59637 49500.00000 0 22583889.193 -3879794.022 -11193912.720 10 0 59637 50400.00000 0 23792103.775 -3995272.932 -8275813.153 10 0 59637 51300.00000 0 24619731.413 -4184004.177 -5196888.068 10 0 59637 52200.00000 0 25048280.287 -4391906.161 -2016996.835 10 0 59637 53100.00000 0 25072547.971 -4563052.622 1202071.242 10 0 59637 54000.00000 0 24700763.182 -4642275.579 4397800.617 10 0 59637 54900.00000 0 23954183.055 -4577738.258 7508164.757 10 0 59637 55800.00000 0 22866164.043 -4323368.727 10472828.988 10 0 59637 56700.00000 0 21480746.522 -3841051.118 13234317.506 10 0 59637 57600.00000 0 19850813.342 -3102481.813 15739122.157 10 0 59637 58500.00000 0 18035900.109 -2090612.299 17938731.847 10 0 59637 59400.00000 0 16099749.122 -800617.857 19790563.459 10 0 59637 60300.00000 0 14107709.053 759648.880 21258777.179 10 0 59637 61200.00000 0 12124088.510 2569738.919 22314961.453 10 0 59637 62100.00000 0 10209573.024 4597219.839 22938675.396 10 0 59637 63000.00000 0 8418811.983 6798796.124 23117839.081 10 0 59637 63900.00000 0 6798274.875 9121891.413 22848964.823 10 0 59637 64800.00000 0 5384464.790 11506628.358 22137225.374 10 0 59637 65700.00000 0 4202562.421 13888125.320 20996357.666 10 0 59637 66600.00000 0 3265556.091 16199015.979 19448403.605 10 0 59637 67500.00000 0 2573893.289 18372088.562 17523292.193 10 0 59637 68400.00000 0 2115667.754 20342936.166 15258270.084 10 0 59637 69300.00000 0 1867333.978 22052508.644 12697190.480 10 0 59637 70200.00000 0 1794919.089 23449460.248 9889673.019 10 0 59637 71100.00000 0 1855681.162 24492195.149 6890149.854 10 0 59637 72000.00000 0 2000144.216 25150525.059 3756815.679 10 0 59637 72900.00000 0 2174424.015 25406869.049 550501.520 10 0 59637 73800.00000 0 2322746.192 25256944.532 -2666506.056 10 0 59637 74700.00000 0 2390049.815 24709919.585 -5831677.172 10 0 59637 75600.00000 0 2324565.446 23788019.409 -8883458.365 10 0 59637 76500.00000 0 2080257.588 22525602.772 -11762475.506 10 0 59637 77400.00000 0 1619026.865 20967746.715 -14412695.677 10 0 59637 78300.00000 0 912577.352 19168398.722 -16782524.706 10 0 59637 79200.00000 0 -56131.522 17188173.807 -18825818.285 10 0 59637 80100.00000 0 -1291911.365 15091889.136 -20502786.361 10 0 59637 81000.00000 0 -2786892.223 12945939.767 -21780772.797 10 0 59637 81900.00000 0 -4520611.564 10815625.696 -22634894.859 10 0 59637 82800.00000 0 -6460642.460 8762542.417 -23048529.927 10 0 59637 83700.00000 0 -8563735.757 6842144.235 -23013639.971 10 0 59637 84600.00000 0 -10777429.351 5101582.133 -22530927.535 10 0 59637 85500.00000 0 -13042057.787 3577906.343 -21609820.269 10 0 59638 0.00000 0 -15293078.413 2296708.195 -20268284.618 10 0 59638 900.00000 0 -17463618.249 1271256.557 -18532471.563 10 0 59638 1800.00000 0 -19487132.086 502165.493 -16436203.417 10 0 59638 2700.00000 0 -21300064.695 -22396.662 -14020309.433 10 0 59638 3600.00000 0 -22844402.683 -325965.467 -11331825.108 10 0 59638 4500.00000 0 -24070010.338 -442539.409 -8423070.547 10 0 59638 5400.00000 0 -24936651.557 -414893.706 -5350626.359 10 0 59638 6300.00000 0 -25415613.404 -292521.698 -2174227.519 10 0 59638 7200.00000 0 -25490863.663 -129292.192 1044402.584 10 0 59638 8100.00000 0 -25159694.514 19076.904 4242754.728 10 0 59638 9000.00000 0 -24432826.171 97620.889 7358749.191 10 0 59638 9900.00000 0 -23333967.049 54695.793 10331939.823 10 0 59638 10800.00000 0 -21898849.816 -155597.825 13104683.414 10 0 59638 11700.00000 0 -20173784.520 -571237.365 15623251.871 10 0 59638 12600.00000 0 -18213789.953 -1220438.820 17838866.011 10 0 59638 13500.00000 0 -16080381.682 -2120233.066 19708631.733 10 0 59638 14400.00000 0 -13839108.991 -3275517.710 21196361.371 10 0 59638 15300.00000 0 -11556943.091 -4678624.555 22273265.348 10 0 59638 16200.00000 0 -9299624.569 -6309421.224 22918501.823 10 0 59638 17100.00000 0 -7129079.379 -8135943.555 23119574.629 10 0 59638 18000.00000 0 -5101009.609 -10115533.334 22872572.484 10 0 59638 18900.00000 0 -3262757.824 -12196435.280 22182245.249 10 0 59638 19800.00000 0 -1651532.416 -14319788.245 21061915.734 10 0 59638 20700.00000 0 -293066.654 -16421929.184 19533228.393 10 0 59638 21600.00000 0 799233.791 -18436915.455 17625739.078 10 0 59638 22500.00000 0 1624620.072 -20299161.679 15376352.751 10 0 59638 23400.00000 0 2194792.897 -21946082.125 12828619.011 10 0 59638 24300.00000 0 2533167.807 -23320629.013 10031897.888 10 0 59638 25200.00000 0 2673644.009 -24373620.857 7040411.028 10 0 59638 26100.00000 0 2658928.602 -25065763.180 3912195.889 10 0 59638 27000.00000 0 2538486.935 -25369276.408 707982.696 10 0 59638 27900.00000 0 2366205.807 -25269061.815 -2509984.285 10 0 59638 28800.00000 0 2197868.631 -24763355.539 -5679158.065 10 0 59638 29700.00000 0 2088549.979 -23863842.134 -8737908.888 10 0 59638 30600.00000 0 2090040.635 -22595221.860 -11626728.570 10 0 59638 31500.00000 0 2248413.204 -20994249.043 -14289394.908 10 0 59638 32400.00000 0 2601832.566 -19108281.220 -16674072.825 10 0 59638 33300.00000 0 3178705.186 -16993399.510 -18734330.123 10 0 59638 34200.00000 0 3996246.894 -14712178.888 -20430047.419 10 0 59638 35100.00000 0 5059531.089 -12331201.696 -21728204.170 10 0 59638 36000.00000 0 6361058.875 -9918418.543 -22603525.240 10 0 59638 36900.00000 0 7880870.492 -7540467.088 -23038975.258 10 0 59638 37800.00000 0 9587194.485 -5260060.778 -23026091.160 10 0 59638 38700.00000 0 11437608.312 -3133556.456 -22565146.523 10 0 59638 39600.00000 0 13380662.341 -1208802.193 -21665144.550 10 0 59638 40500.00000 0 15357899.682 476645.373 -20343639.986 10 0 59638 41400.00000 0 17306187.457 1896860.570 -18626393.506 10 0 59638 42300.00000 0 19160261.901 3038390.132 -16546865.497 10 0 59638 43200.00000 0 20855380.562 3900562.768 -14145559.236 10 0 59638 44100.00000 0 22329970.334 4495255.520 -11469226.501 10 0 59638 45000.00000 0 23528160.048 4846128.477 -8569951.475 10 0 59638 45900.00000 0 24402091.314 4987361.925 -5504131.221 10 0 59638 46800.00000 0 24913910.634 4961951.005 -2331373.073 10 0 59638 47700.00000 0 25037359.302 4819631.502 886668.921 10 0 59638 48600.00000 0 24758894.703 4614525.905 4087495.342 10 0 59638 49500.00000 0 24078296.433 4402610.429 7208976.689 10 0 59638 50400.00000 0 23008732.429 4239110.960 10190558.573 10 0 59638 51300.00000 0 21576283.005 4175938.574 12974433.359 10 0 59638 52200.00000 0 19818943.325 4259273.219 15506655.684 10 0 59638 53100.00000 0 17785146.552 4527397.547 17738180.590 10 0 59638 54000.00000 0 15531869.608 5008872.133 19625804.941 10 0 59638 54900.00000 0 13122400.474 5721128.715 21132994.795 10 0 59638 55800.00000 0 10623859.734 6669540.542 22230583.737 10 0 59638 56700.00000 0 8104578.688 7847008.978 22897329.744 10 0 59638 57600.00000 0 5631441.973 9234084.112 23120320.750 10 0 59638 58500.00000 0 3267303.855 10799615.032 22895221.749 10 0 59638 59400.00000 0 1068584.027 12501903.635 22226359.096 10 0 59638 60300.00000 0 -916858.695 14290315.086 21126640.369 10 0 59638 61200.00000 0 -2651487.736 16107279.096 19617310.984 10 0 59638 62100.00000 0 -4109413.144 17890599.962 17727551.605 10 0 59638 63000.00000 0 -5277224.827 19575980.299 15493923.114 10 0 59638 63900.00000 0 -6154300.548 21099654.067 12959668.825 10 0 59638 64800.00000 0 -6752576.331 22401019.613 10173886.279 10 0 59638 65700.00000 0 -7095789.217 23425162.847 7190583.614 10 0 59638 66600.00000 0 -7218224.319 24125164.698 4067638.000 10 0 59638 67500.00000 0 -7163019.079 24464095.566 865675.817 10 0 59638 68400.00000 0 -6980096.431 24416612.160 -2353103.958 10 0 59638 69300.00000 0 -6723814.412 23970088.483 -5526140.078 10 0 59638 70200.00000 0 -6450432.113 23125232.192 -8591729.190 10 0 59638 71100.00000 0 -6215499.857 21896159.106 -11490231.506 10 0 59638 72000.00000 0 -6071284.927 20309921.569 -14165237.727 10 0 59638 72900.00000 0 -6064342.833 18405509.442 -16564673.775 10 0 59638 73800.00000 0 -6233338.060 16232364.808 -18641821.170 10 0 59638 74700.00000 0 -6607207.636 13848472.167 -20356232.513 10 0 59638 75600.00000 0 -7203746.335 11318103.705 -21674523.898 10 0 59638 76500.00000 0 -8028674.424 8709313.731 -22571028.546 10 0 59638 77400.00000 0 -9075228.327 6091287.011 -23028298.791 10 0 59638 78300.00000 0 -10324292.402 3531651.563 -23037446.677 10 0 59638 79200.00000 0 -11745067.122 1093867.901 -22598316.574 10 0 59638 80100.00000 0 -13296246.128 -1165196.560 -21719486.569 10 0 59638 81000.00000 0 -14927653.177 -3197407.265 -20418098.725 10 0 59638 81900.00000 0 -16582270.459 -4965127.910 -18719521.603 10 0 59638 82800.00000 0 -18198573.150 -6442538.623 -16656851.775 10 0 59638 83700.00000 0 -19713072.063 -7616453.156 -14270264.197 10 0 59638 84600.00000 0 -21062957.429 -8486602.403 -11606224.311 10 0 59638 85500.00000 0 -22188732.396 -9065374.021 -8716577.586 10 0 59639 0.00000 0 -23036725.293 -9377021.016 -5657534.939 10 0 59639 900.00000 0 -23561375.211 -9456374.612 -2488572.601 10 0 59639 1800.00000 0 -23727193.670 -9347117.100 728727.337 10 0 59639 2700.00000 0 -23510321.441 -9099689.844 3931878.098 10 0 59639 3600.00000 0 -22899614.142 -8768925.694 7058703.155 10 0 59639 4500.00000 0 -21897211.812 -8411507.173 10048542.544 10 0 59639 5400.00000 0 -20518568.909 -8083358.549 12843426.711 10 0 59639 6300.00000 0 -18791943.834 -7837082.308 15389195.334 10 0 59639 7200.00000 0 -16757369.694 -7719548.293 17636539.733 10 0 59639 8100.00000 0 -14465149.418 -7769736.989 19541949.451 10 0 59639 9000.00000 0 -11973937.835 -8016927.466 21068545.603 10 0 59639 9900.00000 0 -9348490.252 -8479305.846 22186785.841 10 0 59639 10800.00000 0 -6657170.348 -9163052.546 22875028.418 10 0 59639 11700.00000 0 -3969319.864 -10061946.590 23119945.389 10 0 59639 12600.00000 0 -1352598.025 -11157503.842 22916777.636 10 0 59639 13500.00000 0 1129600.405 -12419644.035 22269427.255 10 0 59639 14400.00000 0 3420542.839 -13807859.607 21190385.508 10 0 59639 15300.00000 0 5472274.206 -15272838.640 19700497.416 10 0 59639 16200.00000 0 7247363.379 -16758475.306 17828566.850 10 0 59639 17100.00000 0 8720209.122 -18204185.063 15610808.767 10 0 59639 18000.00000 0 9877851.938 -19547428.764 13090158.137 10 0 59639 18900.00000 0 10720258.532 -20726340.860 10315447.758 10 0 59639 19800.00000 0 11260067.379 -21682351.971 7340469.827 10 0 59639 20700.00000 0 11521806.256 -22362695.806 4222938.678 10 0 59639 21600.00000 0 11540614.815 -22722694.736 1023374.224 10 0 59639 22500.00000 0 11360526.140 -22727727.123 -2196072.469 10 0 59639 23400.00000 0 11032379.981 -22354792.524 -5372828.482 10 0 59639 24300.00000 0 10611456.219 -21593607.533 -8445119.353 10 0 59639 25200.00000 0 10154929.092 -20447184.691 -11353176.085 10 0 59639 26100.00000 0 9719250.624 -18931868.649 -14040404.538 10 0 59639 27000.00000 0 9357574.746 -17076826.724 -16454493.747 10 0 59639 27900.00000 0 9117332.090 -14923014.030 -18548440.876 10 0 59639 28800.00000 0 9038058.928 -12521655.704 -20281472.234 10 0 59639 29700.00000 0 9149573.048 -9932309.087 -21619841.998 10 0 59639 30600.00000 0 9470574.499 -7220586.358 -22537492.892 10 0 59639 31500.00000 0 10007731.073 -4455632.569 -23016565.757 10 0 59639 32400.00000 0 10755287.831 -1707464.010 -23047748.164 10 0 59639 33300.00000 0 11695217.651 955722.307 -22630455.331 10 0 59639 34200.00000 0 12797906.918 3470156.080 -21772839.923 10 0 59639 35100.00000 0 14023347.731 5778909.832 -20491630.648 10 0 59639 36000.00000 0 15322786.583 7834023.567 -18811802.927 10 0 59639 36900.00000 0 16640760.084 9598250.039 -16766088.131 10 0 59639 37800.00000 0 17917431.876 11046348.870 -14394331.155 10 0 59639 38700.00000 0 19091132.096 12165876.722 -11742708.994 10 0 59639 39600.00000 0 20100992.102 12957441.938 -8862825.951 10 0 59639 40500.00000 0 20889563.128 13434414.759 -5810703.464 10 0 59639 41400.00000 0 21405308.238 13622107.193 -2645684.755 10 0 59639 42300.00000 0 21604862.326 13556458.874 570723.756 10 0 59639 43200.00000 0 21454964.866 13282286.142 3776051.161 10 0 59639 44100.00000 0 20933984.014 12851169.780 6908077.098 10 0 59639 45000.00000 0 20032968.062 12319071.831 9906039.052 10 0 59639 45900.00000 0 18756180.236 11743783.095 12711808.376 10 0 59639 46800.00000 0 17121094.576 11182309.539 15271012.344 10 0 59639 47700.00000 0 15157853.186 10688308.063 17534080.821 10 0 59639 48600.00000 0 12908207.579 10309679.536 19457197.991 10 0 59639 49500.00000 0 10423987.969 10086420.042 21003141.664 10 0 59639 50400.00000 0 7765163.903 10048820.173 22141994.863 10 0 59639 51300.00000 0 4997576.062 10216087.474 22851717.063 10 0 59639 52200.00000 0 2190432.329 10595449.461 23118564.976 10 0 59639 53100.00000 0 -586329.178 11181774.646 22937355.458 10 0 59639 54000.00000 0 -3264702.287 11957727.571 22311565.943 10 0 59639 54900.00000 0 -5781191.363 12894451.851 21253270.460 10 0 59639 55800.00000 0 -8079200.738 13952753.392 19782912.190 10 0 59639 56700.00000 0 -10111137.275 15084735.202 17928916.275 10 0 59639 57600.00000 0 -11840139.784 16235816.470 15727149.390 10 0 59639 58500.00000 0 -13241364.198 17347052.257 13220235.458 10 0 59639 59400.00000 0 -14302771.527 18357657.440 10456739.598 10 0 59639 60300.00000 0 -15025386.107 19207629.471 7490235.007 10 0 59639 61200.00000 0 -15423013.463 19840359.918 4378270.073 10 0 59639 62100.00000 0 -15521429.753 20205124.685 1181255.169 10 0 59639 63000.00000 0 -15357077.000 20259347.384 -2038709.548 10 0 59639 63900.00000 0 -14975319.122 19970539.491 -5219042.359 10 0 59639 64800.00000 0 -14428332.642 19317834.156 -8297900.406 10 0 59639 65700.00000 0 -13772721.517 18293047.510 -11215387.989 10 0 59639 66600.00000 0 -13066957.429 16901221.173 -13914728.398 10 0 59639 67500.00000 0 -12368754.424 15160621.534 -16343375.773 10 0 59639 68400.00000 0 -11732489.640 13102194.344 -18454044.618 10 0 59639 69300.00000 0 -11206779.943 10768496.274 -20205636.326 10 0 59639 70200.00000 0 -10832317.607 8212147.162 -21564044.237 10 0 59639 71100.00000 0 -10640057.120 5493866.843 -22502821.333 10 0 59639 72000.00000 0 -10649830.216 2680178.106 -23003697.409 10 0 59639 72900.00000 0 -10869447.990 -159128.854 -23056935.688 10 0 59639 73800.00000 0 -11294328.231 -2953665.104 -22661522.003 10 0 59639 74700.00000 0 -11907663.839 -5635133.773 -21825182.971 10 0 59639 75600.00000 0 -12681125.212 -8139931.256 -20564232.931 10 0 59639 76500.00000 0 -13576066.918 -10411550.906 -18903252.720 10 0 59639 77400.00000 0 -14545187.500 -12402689.519 -16874606.688 10 0 59639 78300.00000 0 -15534572.169 -14076969.595 -14517807.495 10 0 59639 79200.00000 0 -16486031.772 -15410206.466 -11878741.255 10 0 59639 80100.00000 0 -17339638.942 -16391168.554 -9008768.458 10 0 59639 81000.00000 0 -18036353.898 -17021800.450 -5963718.595 10 0 59639 81900.00000 0 -18520628.640 -17316901.172 -2802798.507 10 0 59639 82800.00000 0 -18742879.221 -17303272.884 412563.615 10 0 59639 83700.00000 0 -18661721.495 -17018377.714 3619915.540 10 0 59639 84600.00000 0 -18245875.866 -16508560.930 6756995.831 10 0 59639 85500.00000 0 -17475660.706 -15826916.803 9762942.127 10 0 59640 0.00000 0 -16344011.725 -15030888.353 12579469.032 10 0 59640 900.00000 0 -14856983.770 -14179702.461 15151994.352 10 0 59640 1800.00000 0 -13033715.644 -13331749.850 17430688.425 10 0 59640 2700.00000 0 -10905857.205 -12542018.773 19371431.988 10 0 59640 3600.00000 0 -8516483.811 -11859691.012 20936661.095 10 0 59640 4500.00000 0 -5918542.295 -11326000.167 22096085.296 10 0 59640 5400.00000 0 -3172892.377 -10972441.480 22827266.015 10 0 59640 6300.00000 0 -346023.759 -10819407.516 23116044.925 10 0 59640 7200.00000 0 2492457.598 -10875306.314 22956814.760 10 0 59640 8100.00000 0 5272471.319 -11136198.579 22352627.804 10 0 59640 9000.00000 0 7926124.671 -11585969.092 21315140.025 10 0 59640 9900.00000 0 10390285.893 -12197025.436 19864391.616 10 0 59640 10800.00000 0 12608963.510 -12931495.323 18028427.544 10 0 59640 11700.00000 0 14535394.017 -13742873.134 15842764.463 10 0 59640 12600.00000 0 16133751.933 -14578047.401 13349713.231 10 0 59640 13500.00000 0 17380411.653 -15379624.916 10597568.976 10 0 59640 14400.00000 0 18264708.795 -16088454.343 7639683.315 10 0 59640 15300.00000 0 18789169.265 -16646243.439 4533435.878 10 0 59640 16200.00000 0 18969196.496 -16998159.553 1339124.522 10 0 59640 17100.00000 0 18832229.939 -17095303.270 -1881204.553 10 0 59640 18000.00000 0 18416410.158 -16896949.964 -5064963.857 10 0 59640 18900.00000 0 17768806.865 -16372463.434 -8150245.054 10 0 59640 19800.00000 0 16943284.844 -15502799.371 -11077028.473 10 0 59640 20700.00000 0 15998098.203 -14281533.593 -13788357.328 10 0 59640 21600.00000 0 14993315.030 -12715370.002 -16231453.088 10 0 59640 22500.00000 0 13988181.815 -10824105.163 -18358749.553 10 0 59640 23400.00000 0 13038539.561 -8640049.509 -20128824.853 10 0 59640 24300.00000 0 12194401.228 -6206928.070 -21507212.836 10 0 59640 25200.00000 0 11497793.251 -3578305.637 -22467077.763 10 0 59640 26100.00000 0 10980952.542 -815601.372 -22989739.058 10 0 59640 27000.00000 0 10664955.184 2014224.875 -23065035.910 10 0 59640 27900.00000 0 10558834.648 4841218.619 -22691524.723 10 0 59640 28800.00000 0 10659226.547 7595103.286 -21876505.671 10 0 59640 29700.00000 0 10950554.636 10207968.301 -20635877.975 10 0 59640 30600.00000 0 11405749.743 12616861.089 -18993826.801 10 0 59640 31500.00000 0 11987470.855 14766175.290 -16982348.046 10 0 59640 32400.00000 0 12649776.174 16609736.202 -14640620.359 10 0 59640 33300.00000 0 13340173.026 18112497.155 -12014236.845 10 0 59640 34200.00000 0 14001959.307 19251776.808 -9154311.736 10 0 59640 35100.00000 0 14576756.924 20017986.862 -6116479.808 10 0 59640 36000.00000 0 15007129.512 20414821.093 -2959808.520 10 0 59640 36900.00000 0 15239173.249 20458899.350 254355.332 10 0 59640 37800.00000 0 15224970.837 20178883.169 3463581.425 10 0 59640 38700.00000 0 14924804.679 19614101.847 6605570.441 10 0 59640 39600.00000 0 14309035.646 18812748.307 9619363.227 10 0 59640 40500.00000 0 13359568.111 17829721.969 12446520.968 10 0 59640 41400.00000 0 12070839.487 16724210.328 15032253.573 10 0 59640 42300.00000 0 10450292.626 15557111.534 17326474.688 10 0 59640 43200.00000 0 8518311.031 14388406.436 19284763.595 10 0 59640 44100.00000 0 6307619.205 13274590.171 20869216.288 10 0 59640 45000.00000 0 3862172.624 12266270.485 22049170.204 10 0 59640 45900.00000 0 1235582.687 11406032.631 22801789.727 10 0 59640 46800.00000 0 -1510858.965 10726659.308 23112502.113 10 0 59640 47700.00000 0 -4310476.013 10249779.284 22975276.148 10 0 59640 48600.00000 0 -7093729.185 9985000.452 22392738.671 10 0 59640 49500.00000 0 -9790861.235 9929563.099 21376126.768 10 0 59640 50400.00000 0 -12334556.953 10068527.680 19945076.291 10 0 59640 51300.00000 0 -14662509.359 10375489.321 18127250.164 10 0 59640 52200.00000 0 -16719786.794 10813789.467 15957812.675 10 0 59640 53100.00000 0 -18460903.303 11338174.376 13478758.875 10 0 59640 54000.00000 0 -19851506.833 11896831.370 10738110.884 10 0 59640 54900.00000 0 -20869615.051 12433717.725 7788995.540 10 0 59640 55800.00000 0 -21506347.202 12891084.450 4688620.465 10 0 59640 56700.00000 0 -21766121.193 13212088.569 1497167.770 10 0 59640 57600.00000 0 -21666307.438 13343383.323 -1723373.436 10 0 59640 58500.00000 0 -21236353.734 13237576.190 -4910412.892 10 0 59640 59400.00000 0 -20516417.887 12855449.803 -8001979.606 10 0 59640 60300.00000 0 -19555565.634 12167850.527 -10937932.555 10 0 59640 61200.00000 0 -18409610.036 11157163.347 -13661137.270 10 0 59640 62100.00000 0 -17138683.737 9818309.112 -16118584.657 10 0 59640 63000.00000 0 -15804646.909 8159220.271 -18262429.592 10 0 59640 63900.00000 0 -14468440.701 6200773.456 -20050928.373 10 0 59640 64800.00000 0 -13187498.197 3976180.134 -21449256.395 10 0 59640 65700.00000 0 -12013322.369 1529859.499 -22430189.853 10 0 59640 66600.00000 0 -10989333.304 -1084160.285 -22974638.065 10 0 59640 67500.00000 0 -10149075.369 -3804246.583 -23072016.073 10 0 59640 68400.00000 0 -9514859.667 -6563489.546 -22720450.371 10 0 59640 69300.00000 0 -9096898.551 -9292255.484 -21926813.837 10 0 59640 70200.00000 0 -8892968.129 -11920860.298 -20706589.356 10 0 59640 71100.00000 0 -8888612.206 -14382251.884 -19083564.877 10 0 59640 72000.00000 0 -9057878.306 -16614589.884 -17089365.970 10 0 59640 72900.00000 0 -9364553.790 -18563615.573 -14762835.148 10 0 59640 73800.00000 0 -9763848.942 -20184713.463 -12149270.166 10 0 59640 74700.00000 0 -10204454.982 -21444579.026 -9299536.515 10 0 59640 75600.00000 0 -10630889.099 -22322423.715 -6269071.711 10 0 59640 76500.00000 0 -10986026.452 -22810667.848 -3116801.253 10 0 59640 77400.00000 0 -11213711.308 -22915093.572 96012.023 10 0 59640 78300.00000 0 -11261336.226 -22654452.947 3306962.238 10 0 59640 79200.00000 0 -11082279.719 -22059549.085 6453714.691 10 0 59640 80100.00000 0 -10638099.093 -21171830.425 9475215.881 10 0 59640 81000.00000 0 -9900385.641 -20041558.539 12312875.713 10 0 59640 81900.00000 0 -8852203.858 -18725627.480 14911698.975 10 0 59640 82800.00000 0 -7489053.980 -17285126.987 17221344.465 10 0 59640 83700.00000 0 -5819317.223 -15782752.077 19197091.914 10 0 59640 84600.00000 0 -3864164.664 -14280167.506 20800698.877 10 0 59640 85500.00000 0 -1656933.073 -12835437.019 22001131.992 99